Location: Meanaryar
(48.4161°N, 4.7315°W)
Time: 10:58:40
(UTC+00:00)

Cosmos 1867 - Pass Details

Date: 18 September 2020
Orbit: 777 x 799 km, 65.0° (Epoch: 24 October)

Event Time Altitude Azimuth Distance (km) Brightness Sun altitude
Rises 20:07:36 0° 318° (NW) 3,313 8.0 -17.4°
Reaches altitude 10° 20:10:05 10° 314° (NW) 2,380 7.1 -17.8°
Maximum altitude 20:15:21 50° 240° (WSW) 1,006 4.3 -18.6°
Enters shadow 20:19:20 17° 171° (S) 1,907 5.2 -19.2°
